Location: Bant
(52.7684°N, 5.7513°E)
Time: 01:18:45
(UTC+00:00)

Daily predictions for brighter satellites

Satellite Brightness Start Highest point End
(mag) Time Altitude Azimuth Time Altitude Azimuth Time Altitude Azimuth
STARLINK-1360 2.8 00:00:11 10° W 00:03:18 85° N 00:06:27 10° E
STARLINK-1361 2.8 00:00:32 10° W 00:03:39 85° N 00:06:47 10° E
STARLINK-1367 2.9 00:00:47 10° W 00:03:56 85° N 00:07:07 10° E
STARLINK-1366 2.8 00:01:10 10° W 00:04:18 85° N 00:07:26 10° E
Cosmos 1400 Rocket 4.1 00:01:35 10° N 00:05:28 37° ENE 00:09:10 11° SE
Cosmos 2227 Rocket 3.0 00:01:50 10° NW 00:06:58 36° WSW 00:10:10 20° SSW
STARLINK-66 4.2 00:07:08 24° SSE 00:07:13 25° SSE 00:09:55 10° E
Landsat 4 3.9 00:03:32 10° N 00:07:14 63° WNW 00:09:24 23° SSW
STARLINK-1338 3.5 00:04:26 10° W 00:08:25 88° N 00:12:25 10° E
Cosmos 1763 Rocket 3.4 00:05:57 22° SSW 00:09:18 75° ESE 00:14:23 10° NNE
Cosmos 1709 Rocket 4.2 00:05:05 19° S 00:09:34 64° E 00:15:42 10° NNE
NOSS 7 (E) 4.3 00:09:45 28° SSW 00:11:17 61° SE 00:14:20 10° NE
STARLINK-52 2.8 00:08:18 10° W 00:11:32 88° S 00:14:46 10° E
Cosmos 2084 Rocket 3.6 00:07:11 10° NW 00:11:34 58° SW 00:14:58 17° SSE
Cosmos 2298 Rocket 4.4 00:09:01 10° NNW 00:14:20 67° ENE 00:19:37 10° SE
STARLINK-1296 4.5 00:16:22 20° SE 00:16:22 20° SE 00:18:40 10° E
STARLINK-1371 3.5 00:12:47 10° W 00:16:45 87° N 00:20:45 10° E
STARLINK-1260 4.4 00:17:14 20° SE 00:17:14 20° SE 00:19:35 10° E
SL-16 R/B 3.4 00:12:02 10° SE 00:17:53 48° ENE 00:23:47 10° N
STARLINK-1318 4.4 00:18:06 21° SE 00:18:06 21° SE 00:20:30 10° E
Cosmos 1758 Rocket 3.8 00:15:28 22° S 00:18:15 63° E 00:22:39 10° NNE
STARLINK-75 4.0 00:18:02 26° SSE 00:18:25 26° SSE 00:21:13 10° E
STARLINK-1275 4.4 00:18:59 21° SE 00:18:59 21° SE 00:21:25 10° E
STARLINK-1309 4.4 00:19:51 21° SE 00:19:52 21° SE 00:22:19 10° E
STARLINK-1282 4.3 00:20:42 21° SSE 00:20:45 21° SE 00:23:13 10° E
Nadezhda 1 Rocket 4.5 00:15:03 10° NNW 00:21:02 50° W 00:25:28 18° SSW
STARLINK-1341 3.5 00:17:09 10° W 00:21:09 86° N 00:25:09 10° E
CZ-4 R/B 3.8 00:16:55 10° NNE 00:21:42 88° W 00:24:50 21° SSW
STARLINK-1313 4.2 00:21:38 23° SSE 00:21:49 23° SSE 00:24:24 10° E
STARLINK-1279 4.1 00:22:33 24° SSE 00:22:45 24° SSE 00:25:20 10° E
IRAS Rocket 4.3 00:18:05 13° SSE 00:23:01 81° ENE 00:28:34 10° NNW
STARLINK-1298 4.3 00:23:16 22° SSE 00:23:24 22° SE 00:25:54 10° E
STARLINK-1293 4.2 00:24:09 22° SSE 00:24:19 22° SE 00:26:51 10° E
STARLINK-1374 3.5 00:21:30 10° W 00:25:31 86° N 00:29:32 10° E
STARLINK-1255 4.2 00:25:54 23° SSE 00:26:08 23° SE 00:28:41 10° E
STARLINK-22 4.1 00:26:16 24° SSE 00:26:42 25° SSE 00:29:25 10° E
Cosmos 2285 Rocket 4.1 00:20:43 10° NNW 00:26:59 62° WSW 00:31:54 17° S
STARLINK 1040 2.4 00:26:21 37° SSW 00:27:01 52° SSE 00:29:31 10° E
STARLINK-1444 2.1 00:24:54 10° W 00:26:51 49° SW 00:26:51 49° SW
SL-16 R/B 4.1 00:23:23 10° SE 00:27:06 18° E 00:30:48 10° ENE
Cosmos 2208 Rocket 4.3 00:23:37 20° S 00:27:12 58° ESE 00:32:30 10° NNE
STARLINK-1297 4.5 00:26:32 23° SSE 00:27:20 25° SE 00:30:20 10° E
STARLINK-1452 2.4 00:25:33 10° W 00:27:17 43° WSW 00:27:17 43° WSW
STARLINK-1392 3.4 00:26:21 10° W 00:27:26 24° W 00:27:26 24° W
STARLINK-1399 3.2 00:26:23 10° W 00:27:37 27° W 00:27:37 27° W
STARLINK-1393 3.3 00:26:25 10° W 00:27:35 26° W 00:27:35 26° W
STARLINK-1394 3.3 00:26:27 10° W 00:27:36 26° W 00:27:36 26° W
STARLINK-1395 3.7 00:26:31 10° W 00:27:25 21° W 00:27:25 21° W
STARLINK-1397 3.2 00:26:30 10° W 00:27:44 28° W 00:27:44 28° W
STARLINK-1396 3.3 00:26:31 10° W 00:27:42 27° W 00:27:42 27° W
STARLINK-1414 3.4 00:26:31 10° W 00:27:36 24° W 00:27:36 24° W
STARLINK-1311 3.9 00:28:28 25° SSE 00:28:39 25° SSE 00:31:09 10° E
STARLINK-1408 3.5 00:26:34 10° W 00:27:38 24° W 00:27:38 24° W
STARLINK-1404 3.2 00:26:36 10° W 00:27:49 27° W 00:27:49 27° W
STARLINK-1416 3.4 00:26:37 10° W 00:27:43 25° W 00:27:43 25° W
STARLINK-1415 3.1 00:26:37 10° W 00:27:56 30° WSW 00:27:56 30° WSW
STARLINK-1406 3.5 00:26:40 10° W 00:27:41 23° W 00:27:41 23° W
STARLINK-1450 3.0 00:26:40 10° W 00:28:00 30° WSW 00:28:00 30° WSW
STARLINK-1401 3.1 00:26:41 10° W 00:28:00 30° WSW 00:28:00 30° WSW
STARLINK-1417 3.0 00:26:44 10° W 00:28:04 30° WSW 00:28:04 30° WSW
STARLINK-1413 3.0 00:26:45 10° W 00:28:05 30° WSW 00:28:05 30° WSW
STARLINK-1402 3.1 00:26:45 10° W 00:28:05 30° WSW 00:28:05 30° WSW
STARLINK-1419 3.2 00:26:46 10° W 00:27:59 27° W 00:27:59 27° W
STARLINK-1422 3.1 00:26:51 10° W 00:28:09 29° W 00:28:09 29° W
STARLINK-1453 2.9 00:26:52 10° W 00:28:18 33° WSW 00:28:18 33° WSW
STARLINK-1398 2.7 00:26:54 10° W 00:28:28 37° WSW 00:28:28 37° WSW
STARLINK-1420 3.0 00:26:56 10° W 00:28:17 31° WSW 00:28:17 31° WSW
STARLINK-1440 3.0 00:26:58 10° W 00:28:21 31° WSW 00:28:21 31° WSW
STARLINK-1460 3.0 00:26:59 10° W 00:28:20 31° WSW 00:28:20 31° WSW
STARLINK-1436 (VISORSAT) 2.6 00:26:58 10° W 00:28:34 37° WSW 00:28:34 37° WSW
STARLINK-1410 3.1 00:27:03 10° W 00:28:22 30° WSW 00:28:22 30° WSW
STARLINK-1423 3.3 00:27:04 10° W 00:28:16 27° W 00:28:16 27° W
STARLINK-1421 3.2 00:27:04 10° W 00:28:16 27° W 00:28:16 27° W
STARLINK-1400 3.0 00:27:03 10° W 00:28:24 30° WSW 00:28:24 30° WSW
STARLINK-1454 3.0 00:27:05 10° W 00:28:26 30° WSW 00:28:26 30° WSW
STARLINK-1458 3.1 00:27:08 10° W 00:28:24 28° W 00:28:24 28° W
STARLINK-1445 2.9 00:27:10 10° W 00:28:35 32° WSW 00:28:35 32° WSW
STARLINK-1407 3.0 00:27:12 10° W 00:28:35 31° WSW 00:28:35 31° WSW
STARLINK-1405 3.7 00:27:14 10° W 00:28:09 21° W 00:28:09 21° W
STARLINK-1446 2.9 00:27:12 10° W 00:28:37 32° WSW 00:28:37 32° WSW
STARLINK-1370 3.0 00:27:14 10° W 00:28:37 31° WSW 00:28:37 31° WSW
STARLINK-1439 3.7 00:27:18 10° W 00:28:12 21° W 00:28:12 21° W
STARLINK-1456 3.1 00:27:16 10° W 00:28:32 28° W 00:28:32 28° W
STARLINK-1457 3.1 00:27:16 10° W 00:28:33 29° W 00:28:33 29° W
STARLINK-1451 3.1 00:27:17 10° W 00:28:33 28° W 00:28:33 28° W
STARLINK-1409 3.1 00:27:17 10° W 00:28:33 29° W 00:28:33 29° W
STARLINK-1447 3.0 00:27:17 10° W 00:28:41 31° WSW 00:28:41 31° WSW
STARLINK-1437 3.1 00:27:19 10° W 00:28:38 30° WSW 00:28:38 30° WSW
STARLINK-1455 3.0 00:27:18 10° W 00:28:41 31° WSW 00:28:41 31° WSW
STARLINK-1441 2.9 00:27:20 10° W 00:28:44 32° WSW 00:28:44 32° WSW
STARLINK-1443 2.8 00:27:23 10° W 00:28:52 34° WSW 00:28:52 34° WSW
STARLINK-1351 2.9 00:27:25 10° W 00:28:48 32° WSW 00:28:48 32° WSW
STARLINK-1418 2.9 00:27:25 10° W 00:28:48 32° WSW 00:28:48 32° WSW
STARLINK-1403 2.9 00:27:25 10° W 00:28:52 33° WSW 00:28:52 33° WSW
STARLINK-1434 2.8 00:27:24 10° W 00:28:54 34° WSW 00:28:54 34° WSW
STARLINK-1442 2.9 00:27:25 10° W 00:28:50 32° WSW 00:28:50 32° WSW
STARLINK-1448 2.9 00:27:27 10° W 00:28:51 32° WSW 00:28:51 32° WSW
STARLINK-1433 3.0 00:27:28 10° W 00:28:51 31° WSW 00:28:51 31° WSW
STARLINK-1449 2.9 00:27:30 10° W 00:28:57 33° WSW 00:28:57 33° WSW
STARLINK-1438 3.2 00:27:33 10° W 00:28:49 28° W 00:28:49 28° W
STARLINK-1339 3.5 00:25:46 10° W 00:29:46 85° N 00:33:46 10° E
STARLINK-1411 3.0 00:27:41 10° W 00:29:01 30° WSW 00:29:01 30° WSW
STARLINK-1412 2.9 00:27:41 10° W 00:29:05 32° WSW 00:29:05 32° WSW
CZ-2D R/B 3.6 00:26:05 10° NE 00:30:31 27° E 00:34:55 10° SSE
Cosmos-2242 2.9 00:27:15 10° NNW 00:31:32 79° W 00:34:23 20° S
Meteor 2-10 Rocket 3.8 00:26:54 10° NNW 00:31:56 53° W 00:35:16 20° SSW
MOZ.5/SAFIR/RUBIN 5/SL-8 4.3 00:29:16 10° SSE 00:33:44 58° ENE 00:38:19 10° N
USA 81 4.1 00:30:17 20° S 00:34:02 86° W 00:39:23 10° N
Cosmos 2221 4.2 00:30:16 10° N 00:34:10 31° ENE 00:38:03 10° SE
STARLINK-1377 3.5 00:30:10 10° W 00:34:11 85° N 00:38:13 10° E
USA 215 3.6 00:29:09 10° SSE 00:35:22 44° SW 00:41:36 10° WNW
Cosmos 1953 Rocket 4.0 00:33:32 18° SSE 00:36:38 55° E 00:40:56 10° NNE
BREEZE-M R/B 3.1 00:30:47 10° WSW 00:36:54 56° S 00:40:07 10° E
STARLINK-42 3.6 00:36:26 28° S 00:37:19 34° SSE 00:40:12 10° E
STARLINK-1353 3.5 00:34:31 10° W 00:38:31 85° N 00:42:33 10° E
Meteor 1-21 Rocket 4.4 00:34:27 19° SSW 00:38:41 74° WNW 00:44:32 10° N
GP-B 3.8 00:34:57 10° N 00:39:18 49° E 00:42:59 14° SSE
STARLINK-60 3.1 00:36:22 10° W 00:39:27 48° SSW 00:42:32 10° SE
FALCON 9 DEB 3.0 00:36:28 10° W 00:39:56 87° S 00:43:24 10° ESE
STARLINK-34 4.2 00:40:02 21° SSE 00:40:26 22° SE 00:42:53 10° E
Cosmos 1315 Rocket 4.3 00:37:27 10° N 00:41:02 33° ENE 00:44:37 10° SE
STARLINK-41 3.6 00:40:11 28° S 00:41:02 34° SSE 00:43:52 10° E
SeaSat 1 3.9 00:37:10 10° NNE 00:41:33 33° NW 00:45:56 10° WSW
STARLINK-1375 3.5 00:38:52 10° W 00:42:54 85° N 00:46:56 10° E
CZ-4C R/B 4.1 00:38:35 10° SSE 00:42:54 59° ENE 00:47:18 10° N
STARLINK-1272 4.1 00:42:02 24° S 00:43:18 31° SSE 00:46:28 10° E
STARLINK-62 4.2 00:43:45 22° SSE 00:44:15 23° SSE 00:46:46 10° E
Cosmos 540 Rocket 3.5 00:41:07 19° SSW 00:44:48 77° ESE 00:49:56 10° NNE
STARLINK-1350 3.5 00:43:12 10° W 00:47:14 85° N 00:51:16 10° E
Helios 1B rocket 2.9 00:43:27 10° N 00:47:31 54° WNW 00:50:24 18° SW
STARLINK-1307 4.1 00:46:48 22° SSW 00:48:26 33° SSE 00:51:49 10° E
STARLINK-1352 3.5 00:47:27 10° W 00:51:29 86° N 00:55:30 10° E
STARLINK-1290 4.1 00:50:11 22° SSW 00:51:56 35° SSE 00:55:21 10° E
STARLINK-1368 3.5 00:52:03 10° W 00:56:05 86° N 01:00:07 10° E
Meteor 1-29 3.2 00:52:48 10° N 00:56:07 56° WNW 00:58:11 20° SW
Cosmos 1980 Rocket 2.2 00:51:50 18° SSW 00:56:08 77° ESE 01:01:50 10° NNE
Cosmos 2074 Rocket 4.4 00:51:22 13° S 00:56:57 60° E 01:03:08 10° NNE
Cosmos 1455 3.4 00:54:53 10° NNW 00:58:06 27° W 01:00:05 17° SW
STARLINK-1317 4.0 00:56:33 20° SSW 00:58:52 41° SSE 01:02:34 10° E
STARLINK-1369 3.5 00:56:29 10° W 01:00:31 87° N 01:04:33 10° E
Cosmos 1328 4.0 00:59:35 19° SSW 01:02:17 64° WNW 01:06:17 10° N
STARLINK-55 3.1 01:00:33 19° SW 01:02:37 52° SSE 01:05:46 10° E
STARLINK-1274 3.8 01:00:55 21° SSW 01:02:52 39° SSE 01:06:13 10° E
OPS 8737 4.4 01:00:39 10° NW 01:03:47 71° SW 01:07:50 10° SE
STARLINK-43 3.2 01:00:15 10° WSW 01:03:55 75° SSE 01:07:36 10° E
STARLINK-1372 3.5 01:00:43 10° W 01:04:45 87° N 01:08:46 10° E
Lacrosse 4 Rocket 3.4 01:04:13 10° WNW 01:06:12 13° WSW 01:07:20 12° WSW
STARLINK-1291 3.8 01:04:15 19° SW 01:06:33 42° SSE 01:10:07 10° E
Cosmos 2369 4.1 01:02:04 13° SW 01:07:05 61° NW 01:12:43 10° NNE
Meteor 1-11 4.2 01:03:54 16° S 01:08:31 82° ESE 01:14:08 10° NNE
ADEOS II 3.9 01:04:16 10° NE 01:08:32 24° E 01:12:47 10° SE
Cosmos 1703 3.7 01:05:53 18° SW 01:08:35 50° WNW 01:12:26 10° N
Cosmos 2263 Rocket 2.2 01:03:46 10° NW 01:09:22 70° WSW 01:14:53 10° SSE
STARLINK-1378 3.5 01:05:21 10° W 01:09:23 88° N 01:13:25 10° E
STARLINK-1264 3.8 01:07:26 18° SW 01:09:52 44° SSE 01:13:27 10° E
Cosmos 1825 Rocket 4.0 01:08:39 17° SW 01:11:49 50° WNW 01:16:06 10° N
Cosmos 2297 Rocket 4.3 01:11:19 10° W 01:12:11 10° W 01:13:03 10° WSW
STARLINK-29 3.1 01:09:08 10° W 01:12:15 49° SSW 01:15:21 10° SE
STARLINK-1267 3.7 01:10:40 17° SW 01:13:13 46° SSE 01:16:49 10° E
SL-4 R/B 2.7 01:09:07 10° W 01:13:41 42° SSW 01:18:06 10° SE
STARLINK-1379 3.5 01:09:50 10° W 01:13:53 89° N 01:17:56 10° E
STARLINK-28 2.9 01:11:34 15° WSW 01:14:07 62° SSE 01:17:18 10° E
USA 229 DEB 3.9 01:07:53 10° NW 01:15:02 67° SW 01:22:31 10° SSE
USA 229 3.9 01:08:00 10° NW 01:15:08 67° SW 01:22:38 10° SSE
NOSS 3-1 (C) 4.1 01:08:36 10° NW 01:15:51 63° SW 01:24:13 10° SSE
UNK 3.7 01:11:40 11° SSE 01:16:09 81° WSW 01:20:45 10° NNW
STARLINK-1329 3.5 01:13:38 10° W 01:17:41 90° S 01:21:45 10° E
NPP 4.2 01:12:28 10° NNE 01:17:48 55° E 01:22:54 11° S
NOSS 2-1 (D) 4.4 01:16:51 15° S 01:19:01 27° ESE 01:22:08 10° ENE
STARLINK-1207 3.6 01:17:09 16° SW 01:19:58 49° SSE 01:23:36 10° E
Cosmos 2184 Rocket 4.0 01:16:26 13° S 01:22:03 83° E 01:28:16 10° NNE
STARLINK-1362 3.5 01:18:09 10° W 01:22:13 88° S 01:26:17 10° E
CZ-4C R/B 2.9 01:17:35 10° WSW 01:22:53 56° NNW 01:29:18 10° NE
STARLINK-1266 3.6 01:20:25 15° SW 01:23:21 51° SSE 01:27:01 10° E
BREEZE-M DEB (TANK) 3.1 01:23:13 19° S 01:23:46 21° SSE 01:25:53 10° E
NOSS 3-1 (A) 4.0 01:16:46 10° NW 01:24:04 77° SW 01:32:34 10° SE
STARLINK-33 2.8 01:21:41 13° WSW 01:24:19 63° SSE 01:27:24 10° E
Cosmos 1892 4.2 01:22:27 10° SSE 01:25:51 32° E 01:29:15 10° NNE
STARLINK-1284 3.6 01:23:40 14° SW 01:26:45 53° SSE 01:30:25 10° E
STARLINK-1373 3.5 01:22:41 10° W 01:26:45 87° S 01:30:47 10° ESE
STARLINK-1320 2.7 01:23:50 10° W 01:26:58 76° SSW 01:30:05 10° ESE
STARLINK-1322 2.7 01:24:11 10° W 01:27:18 76° SSW 01:30:26 10° ESE
STARLINK-1324 2.7 01:24:30 10° W 01:27:38 76° SSW 01:30:45 10° ESE
BREEZE-M DEB (TANK) 1.4 01:25:19 10° WSW 01:27:44 41° S 01:30:04 10° ESE
STARLINK-26 3.1 01:24:28 11° WSW 01:27:47 69° SSE 01:31:12 10° E
STARLINK-1294 2.7 01:24:48 10° W 01:27:56 75° SSW 01:31:05 10° ESE
STARLINK-1261 2.7 01:25:12 10° W 01:28:19 75° SSW 01:31:26 10° ESE
STARLINK-1325 2.7 01:25:33 10° W 01:28:41 75° SSW 01:31:47 10° ESE
Cosmos 1869 3.2 01:24:59 10° N 01:28:53 85° ENE 01:32:45 10° SSE
STARLINK-1333 2.7 01:25:55 10° W 01:29:02 75° SSW 01:32:09 10° ESE
STARLINK-1334 2.7 01:26:12 10° W 01:29:19 75° SSW 01:32:26 10° ESE
STARLINK-1326 2.7 01:26:31 10° W 01:29:38 74° SSW 01:32:45 10° ESE
STARLINK-1323 2.7 01:26:54 10° W 01:30:01 74° SSW 01:33:09 10° ESE
STARLINK-1258 3.5 01:26:59 13° SW 01:30:10 55° SSE 01:33:51 10° E
STARLINK-1349 2.7 01:27:12 10° W 01:30:19 74° SSW 01:33:27 10° ESE
STARLINK-1336 2.7 01:27:31 10° W 01:30:39 74° SSW 01:33:46 10° ESE
STARLINK-1331 2.7 01:27:54 10° W 01:31:02 74° SSW 01:34:08 10° ESE
STARLINK-1344 2.7 01:28:13 10° W 01:31:19 73° SSW 01:34:27 10° ESE
STARLINK-1390 3.5 01:27:16 10° W 01:31:20 85° SSW 01:35:24 10° ESE
STARLINK-1343 2.7 01:28:35 10° W 01:31:42 73° SSW 01:34:49 10° ESE
STARLINK-1346 2.8 01:28:52 10° W 01:32:01 73° SSW 01:35:10 10° ESE
STARLINK-1328 2.7 01:29:18 10° W 01:32:26 73° SSW 01:35:33 10° ESE
STARLINK-1354 2.7 01:29:36 10° W 01:32:43 73° SSW 01:35:49 10° ESE
STARLINK-1347 2.7 01:29:53 10° W 01:33:00 72° SSW 01:36:07 10° ESE
STARLINK-1357 2.7 01:30:19 10° W 01:33:26 72° SSW 01:36:33 10° ESE
ATLAS CENTAUR R/B 4.3 01:31:18 10° NW 01:33:35 15° N 01:35:47 10° NE
STARLINK-1292 3.5 01:30:17 12° SW 01:33:36 57° SSE 01:37:17 10° E
STARLINK-1335 2.7 01:30:36 10° W 01:33:43 72° SSW 01:36:50 10° ESE
STARLINK-1327 2.7 01:30:57 10° W 01:34:04 72° SSW 01:37:11 10° ESE
STARLINK-1340 2.7 01:31:14 10° W 01:34:22 72° SSW 01:37:28 10° ESE
STARLINK-1356 2.7 01:31:38 10° W 01:34:45 71° SSW 01:37:52 10° ESE
Cosmos 2322 Rocket 3.0 01:29:42 10° S 01:34:56 44° ESE 01:40:15 10° NE
STARLINK-1345 2.7 01:31:56 10° W 01:35:04 71° SSW 01:38:10 10° ESE
STARLINK-1355 2.7 01:32:18 10° W 01:35:25 71° SSW 01:38:32 10° ESE
STARLINK-1321 2.7 01:32:39 10° W 01:35:46 71° SSW 01:38:53 10° ESE
STARLINK-1358 2.7 01:33:02 10° W 01:36:08 70° SSW 01:39:15 10° ESE
STARLINK-1332 2.7 01:33:19 10° W 01:36:26 70° SSW 01:39:32 10° ESE
STARLINK-1348 2.7 01:33:39 10° W 01:36:46 70° SSW 01:39:53 10° ESE
STARLINK-1330 2.7 01:33:59 10° W 01:37:06 70° SSW 01:40:12 10° ESE
STARLINK-1365 3.5 01:33:14 10° W 01:37:21 83° S 01:41:26 10° ESE
STARLINK-1363 2.7 01:34:19 10° W 01:37:26 70° SSW 01:40:33 10° ESE
STARLINK-1337 2.8 01:34:41 10° W 01:37:48 69° SSW 01:40:55 10° ESE
STARLINK-1342 2.8 01:35:01 10° W 01:38:07 69° SSW 01:41:14 10° ESE
STARLINK-1364 2.8 01:35:21 10° W 01:38:28 69° SSW 01:41:34 10° ESE
STARLINK-1376 2.8 01:35:41 10° W 01:38:48 69° SSW 01:41:54 10° ESE
STARLINK-1360 2.8 01:36:01 10° W 01:39:09 69° SSW 01:42:15 10° ESE
STARLINK-1268 2.9 01:36:29 12° WSW 01:39:14 60° SSE 01:42:18 10° E
STARLINK-1361 2.8 01:36:23 10° W 01:39:29 68° SSW 01:42:35 10° ESE
STARLINK-1367 2.8 01:36:38 10° W 01:39:46 68° SSW 01:42:55 10° ESE
Resurs 1-4 Rocket 2.2 01:34:27 10° NNE 01:39:48 90° N 01:44:54 11° SSW
STARLINK-1366 2.8 01:37:01 10° W 01:40:08 68° SSW 01:43:14 10° ESE
STARLINK-1289 3.4 01:36:51 11° WSW 01:40:27 61° SSE 01:44:09 10° E
Cosmos 1400 Rocket 4.1 01:38:19 10° NW 01:41:49 27° W 01:44:46 13° SW
STARLINK-1301 3.5 01:38:36 10° WSW 01:42:24 64° SSE 01:46:14 10° E
Cosmos 1697 Rocket 3.8 01:37:10 10° WSW 01:42:26 38° NW 01:47:43 10° NNE
STARLINK-66 2.9 01:39:50 10° WSW 01:43:02 76° SSE 01:46:15 10° E
Cosmos 1125 Rocket 3.9 01:38:20 10° NW 01:43:19 46° WSW 01:48:15 10° S
Cosmos 2278 4.4 01:38:09 10° SW 01:43:38 49° NW 01:49:10 10° NNE
Cosmos 841 Rocket 4.4 01:38:54 10° SW 01:43:50 41° NW 01:48:46 10° NNE
STARLINK-1303 3.4 01:40:12 10° WSW 01:43:55 63° SSE 01:47:39 10° E
STARLINK-1316 2.9 01:41:30 11° WSW 01:44:28 63° SSE 01:47:35 10° E
Cosmos 1076 Rocket 4.2 01:40:21 10° S 01:44:36 53° E 01:48:52 10° NNE
STARLINK-1257 2.9 01:42:21 11° WSW 01:45:22 64° SSE 01:48:30 10° E
STARLINK-1256 2.9 01:43:18 10° WSW 01:46:20 64° SSE 01:49:26 10° E
STARLINK-58 3.1 01:44:00 12° SW 01:46:49 54° SSE 01:49:57 10° E
STARLINK-1213 2.9 01:44:09 10° WSW 01:47:13 65° SSE 01:50:19 10° E
STARLINK-1312 3.4 01:43:40 10° WSW 01:47:25 65° SSE 01:51:09 10° E
STARLINK-1338 3.4 01:43:28 10° W 01:47:27 78° SSW 01:51:27 10° ESE
STARLINK-52 3.5 01:44:31 10° W 01:47:29 34° SSW 01:50:26 10° SE
STARLINK-1263 2.9 01:45:01 10° WSW 01:48:06 66° SSE 01:51:12 10° E
H-2A R/B 4.0 01:44:51 10° SE 01:48:51 33° ENE 01:52:54 10° N
Meteor 2-17 Rocket 4.5 01:42:53 10° SSW 01:48:59 84° W 01:55:08 10° N
STARLINK-1259 2.8 01:45:57 10° WSW 01:49:03 66° SSE 01:52:10 10° E
STARLINK-1265 2.9 01:46:19 10° WSW 01:49:27 67° SSE 01:52:35 10° E
STARLINK-1285 2.8 01:46:49 10° WSW 01:49:55 67° SSE 01:53:02 10° E
STARLINK-1296 2.8 01:48:37 10° WSW 01:51:44 68° SSE 01:54:51 10° E
STARLINK-1260 2.8 01:49:31 10° WSW 01:52:38 68° SSE 01:55:45 10° E
STARLINK-1318 2.8 01:50:25 10° WSW 01:53:32 69° SSE 01:56:39 10° E
Cosmos 1408 3.8 01:50:35 10° SSE 01:54:02 39° E 01:57:29 10° NNE
STARLINK-75 2.9 01:51:02 10° WSW 01:54:16 79° SSE 01:57:30 10° E
STARLINK-1275 2.8 01:51:19 10° WSW 01:54:27 70° SSE 01:57:34 10° E
STARLINK-1309 2.8 01:52:13 10° WSW 01:55:20 70° SSE 01:58:27 10° E
STARLINK-1371 3.4 01:51:44 10° W 01:55:41 74° SSW 01:59:38 10° ESE
STARLINK-1282 2.8 01:53:07 10° WSW 01:56:13 71° SSE 01:59:20 10° E
Cosmos 2154 Rocket 4.0 01:50:07 10° S 01:56:22 86° W 02:02:38 10° N
STARLINK-1313 2.8 01:54:12 10° WSW 01:57:19 75° SSE 02:00:28 10° E
STARLINK-48 3.8 01:53:48 11° SW 01:57:30 51° SSE 02:01:18 10° E
GEOS 3 Rocket 3.8 01:53:14 10° SSE 01:58:16 50° SW 02:03:27 10° NW
STARLINK-1279 2.8 01:55:09 10° WSW 01:58:16 75° SSE 02:01:23 10° E
STARLINK-1298 2.8 01:55:46 10° WSW 01:58:53 72° SSE 02:02:00 10° E
STARLINK-1278 4.4 01:55:21 11° SW 01:59:06 40° SSE 02:03:06 10° E
Iridium 2 4.2 01:55:56 10° NNW 01:59:32 43° W 02:03:07 10° SSW
STARLINK-1293 2.8 01:56:43 10° WSW 01:59:49 73° SSE 02:02:57 10° E
STARLINK-80 3.4 01:56:08 10° WSW 01:59:56 74° SSE 02:03:44 10° E
STARLINK-1341 3.4 01:56:07 10° W 02:00:05 72° SSW 02:04:02 10° ESE
STARLINK-1283 3.6 01:56:26 10° WSW 02:00:33 75° SSE 02:04:40 10° E
Cosmos 1825 3.7 01:57:17 10° SSE 02:00:39 32° E 02:04:03 10° NNE
STARLINK 1040 2.4 01:58:21 10° W 02:00:55 82° N 02:03:29 10° E
STARLINK-1280 4.3 01:57:08 11° SW 02:00:57 41° SSE 02:04:58 10° E
SL-16 R/B 3.1 01:55:52 10° SSW 02:01:37 40° W 02:07:27 10° NNW
STARLINK-1255 2.8 01:58:30 10° WSW 02:01:38 74° SSE 02:04:46 10° E
STARLINK-22 2.9 01:59:18 10° WSW 02:02:31 77° SSE 02:05:44 10° E
SL-08 R/B 3.5 01:58:38 10° SSE 02:03:14 77° ENE 02:07:52 10° NNW
STARLINK-1311 2.6 02:00:41 10° WSW 02:03:38 79° SSE 02:06:36 10° E
Cosmos 1844 Rocket 2.9 01:58:17 10° NNW 02:03:56 79° ENE 02:09:30 10° SE
STARLINK-1374 3.5 02:00:35 10° W 02:04:34 70° SSW 02:08:34 10° ESE
STARLINK-1297 3.2 02:01:00 10° WSW 02:04:36 73° SSE 02:08:13 10° E
NOSS 2-1 (E) 3.2 02:04:58 11° SW 02:08:15 66° SE 02:12:06 10° NE
STARLINK-1339 3.4 02:04:44 10° W 02:08:41 68° SSW 02:12:38 10° ESE
STARLINK-1286 4.3 02:05:39 10° SW 02:09:34 41° SSE 02:13:31 10° E
SL-16 R/B 2.3 02:04:43 10° SSW 02:10:25 87° ESE 02:16:08 10° NNE
CZ-2D R/B 2.4 02:05:48 10° N 02:10:55 55° WNW 02:15:59 10° SW
Cosmos 2221 3.3 02:07:47 10° NNW 02:11:46 35° W 02:15:45 10° SSW
STARLINK-1281 4.3 02:08:54 10° SW 02:12:48 41° SSE 02:16:43 10° E
STARLINK-42 2.8 02:09:47 10° W 02:12:55 88° S 02:16:03 10° E
STARLINK-1377 3.5 02:09:16 10° W 02:13:16 66° SSW 02:17:14 10° ESE
IRIDIUM 104 4.4 02:08:33 10° S 02:13:46 78° W 02:19:01 10° N
STARLINK-1029 3.0 02:11:46 10° WSW 02:14:54 63° SSE 02:18:04 10° E
STARLINK-34 2.8 02:12:40 10° WSW 02:15:44 72° SSE 02:18:48 10° E
STARLINK-41 2.8 02:13:24 10° W 02:16:28 89° S 02:19:32 10° E
FALCON 9 DEB 3.8 02:13:36 10° W 02:16:46 34° SSW 02:19:56 10° SE
Nadezhda 3 Rocket 4.4 02:10:58 10° NNW 02:17:01 49° W 02:23:05 10° SSW
Cosmos 1315 Rocket 3.9 02:14:10 10° NW 02:17:31 27° W 02:20:53 10° SSW
STARLINK-1353 3.5 02:13:37 10° WNW 02:17:36 63° SSW 02:21:34 10° ESE
STARLINK-1310 4.2 02:13:49 10° SW 02:17:46 44° SSE 02:21:43 10° E
ATLAS 5 CENTAUR R/B 3.8 02:16:06 10° NW 02:17:52 19° NNE 02:20:33 10° ENE
STARLINK-62 2.8 02:16:30 10° WSW 02:19:33 74° SSE 02:22:36 10° E
STARLINK-1272 3.2 02:16:46 10° WSW 02:20:19 82° SSE 02:23:52 10° E
CBERS-1 4.1 02:15:26 10° NNE 02:20:36 82° WNW 02:25:43 10° SSW
STARLINK-1375 3.6 02:17:59 10° WNW 02:21:58 61° SSW 02:25:56 10° ESE
STARLINK-1319 4.1 02:18:44 10° SW 02:22:42 46° SSE 02:26:41 10° E
IRIDIUM 114 4.4 02:17:45 10° SSW 02:22:55 66° W 02:28:10 10° N
Cosmos 2278 Rocket 4.1 02:20:22 10° NNW 02:25:38 37° NE 02:30:52 10° ESE
